Вернуться в каталог

STARLINK-30938

АктивенСвязьVLEO
NORAD 58389·PAYLOAD·🇺🇸 United States

Запущен Nov 20, 2023 с Vandenberg Space Force Base

Loading…

Ближайшие Пролёты (ближайшие 24 часа)

TLE

СвежийSource: CelesTrak SupGP

Эпоха: Sep 15, 2026, 03:02 UTC

1 58389C 23178R   26258.12687500 -.00059567  00000+0 -17600-2 0  2583
2 58389  53.1570 198.5156 0001320  83.6870 230.1697 15.34419147    17

Отслеживайте STARLINK-30938 в реальном времени с AllMySat

Download on the App Store